Regional Weather Roundup
Issued by NWS Midland/Odessa, TX

Skip options and go directly to product.
Home | Oldest Version | Next Version | Current Version | All | Text Only | Save Text | Print | Product List | Glossary On

Skip product version selection by date and time.   
756
ASUS44 KMAF 290702
RWRMAF
MIDLAND AREA WEATHER ROUNDUP
NATIONAL WEATHER SERVICE MIDLAND TX
200 AM CDT TUE JUL 29 2014

...IN SOUTHWEST TEXAS AND SOUTHEAST NEW MEXICO...

CITY           SKY/WX    TMP DP  RH WIND       PRES   REMARKS
ALPINE         CLEAR     70  55  60 CALM      30.30F
ANDREWS        FAIR      77  63  61 E9G16     30.20S
ARTESIA        CLOUDY    81  63  54 SE6       30.23R
BIG SPRING     CLEAR     79  62  55 E13       30.19S
CARLSBAD       PTCLDY    81  62  52 SE13      30.16F
DRYDEN           N/A     86  59  39 E9        30.10F
FORT STOCKTON  CLEAR     79  53  40 S9        30.15S
GUAD PASS      CLEAR     70  61  73 NE26      30.30F
HOBBS          PTCLDY    75  63  64 E12       30.23F
MARFA          PTCLDY    64  54  68 NE9       30.29S
MIDLAND AIRPK  CLEAR     80  64  59 E7        30.19S
MIDLAND INTL   PTCLDY    80  64  58 E12       30.18R
ODESSA         PTCLDY    79  63  57 SE14      30.19S
PECOS          CLEAR     82  56  41 E10       30.12F
PRESIDIO       FAIR      85  53  33 NE13G18   30.10S
SEMINOLE       MOCLDY    75  62  64 E6        30.23S
SNYDER         CLEAR     75  63  65 NE10      30.19S
WINK           CLEAR     82  64  54 E14       30.14S
$$
...OTHER STATIONS IN TEXAS...

CITY           SKY/WX    TMP DP  RH WIND       PRES   REMARKS
ABILENE        CLEAR     77  58  51 E6        30.15F
AMARILLO       MOCLDY    65  62  90 SE9       30.28F
AUSTIN         PTCLDY    77  70  79 CALM      30.08R
BROWNSVILLE    CLEAR     78  76  93 S8        30.05F
CORPUS CHRISTI PTCLDY    77  73  87 S3        30.04S
DALLAS FTW     MOCLDY    79  62  56 NE6       30.10F
DEL RIO        CLEAR     85  66  53 E10       30.04S
EL PASO        MOCLDY    75  63  66 N15       30.16F
HOUSTON INT    MOCLDY    82  74  76 SW5       30.05F
LUBBOCK        MOCLDY    68  62  81 E7        30.24S
SAN ANGELO     CLEAR     79  66  64 E7        30.13F
SAN ANTONIO    PTCLDY    81  68  64 S8        30.09R
WACO           CLEAR     75  71  87 N5        30.10S
WICHITA FALLS  NOT AVBL
$$
...OTHER LOCATIONS IN NEW MEXICO...

CITY           SKY/WX    TMP DP  RH WIND       PRES   REMARKS
ALAMAGORDO     LGT RAIN  68  66  94 N10       30.26S
ALBUQUERQUE    LGT RAIN  71  61  70 NE12      30.33R
CANNON AFB     MOCLDY    68  64  88 SE9       30.28F
CLOVIS         NOT AVBL
HOLLOMAN AFB   MOCLDY    70  68  94 E8        30.23S
ROSWELL        LGT RAIN  71  67  87 E10       30.22R
RUIDOSO        CLOUDY    63  59  88 E8        30.45S
SANTA FE       CLOUDY    63  56  78 E9        30.40F
TRUTH OR CONSE CLOUDY    74  60  61 CALM      30.26S
TUCUMCARI      MOCLDY    73  61  65 SW5       30.27S
$$

USA.gov is the U.S. government's official web portal to all federal, state and local government web resources and services.